sat.trackr.live / text

‹ back to catalog

STARLINK-1552

NORAD 46076 · 2020-055BB

PAYLOAD ACTIVE UNKNOWN

§ Identity

Operator
Country
US
Launch date
2020-08-07
Launch site
AFETR
Launch vehicle
Mass (kg)
RCS (m²)

Purposes: comms

External: N2YO · Heavens-Above · Gunter

§ Orbital elements

Epoch: 2026-09-20T01:36:29.596608Z

Period
94.02 min
Inclination
53.1594°
Eccentricity
0.0001476
Mean motion
15.31667476 rev/d
Perigee alt
469.8 km
Apogee alt
471.8 km
Semi-major
6,849.0 km
B*
2.5889e-4
RAAN
276.6854°
Arg perigee
71.6816°
Mean anomaly
288.4346°
Rev number
33,900

§ Raw data

STARLINK-15521 46076U 20055BB  26263.06700922  .00007669  00000+0  25889-3 0  99922 46076  53.1594 276.6854 0001476  71.6816 288.4346 15.31667476339003

JSON: /api/v1/satellites/46076 · /tle

For live sub-satellite position, see the globe view (requires WebGL).

§ Visibility from observer

Set your observer location to see the next 7 days of passes ≥ 10°. The values pass through the URL so the page stays shareable.

No JS? Fill the form by hand. The geolocation button needs JavaScript.